COSMOS 2425 (716)

Last updated on July 3, 2021, 10:52 a.m. UTC

1 29670U 06062A   21183.28536156 -.00000015  00000-0  00000-0 0  9996
2 29670  64.8378 254.9483 0023806 341.7482  28.6464  2.13117145112992
UTC
Height (km)
Latitude
Longitude
Inclination
Orbital Period
UTC large
Height (km)
Speed (km/s)
/
Latitude / Longitude
Inclination (degrees)
Orbital Period (minutes)
Azimuth
Elevation
Range (km)
Doppler Factor
iOS Compass Heading
iOS Angle